User: anonymous   Login
Location: Unspecified
(0.0000°N, 0.0000°E)
Time: 18:12:20
(UTC+00:00)
Language:

GOES 3 - Orbit

View from above orbital plane
View from above orbital plane
View from above satellite
View from above satellite

Ground track
Ground track

The orbit data is extracted from the following two-line orbital elements,

1 10953U 78062A   19084.59487365 -.00000051  00000-0  00000+0 0  9996
2 10953  12.4701 324.0187 0005189   6.6771 259.9319  0.99363281102350
Epoch (UTC): 25 March 2019 14:16:37
Eccentricity: 0.0005189
inclination: 12.4701°
perigee height: 36021 km
apogee height: 36065 km
right ascension of ascending node: 324.0187°
argument of perigee: 6.6771°
revolutions per day: 0.99363281
mean anomaly at epoch: 259.9319°
orbit number at epoch: 10235

The dashed part of the orbit path shows where the satellite is in the earth's shadow,  

DLR